| time (UTC) | temp C | wind direction | speed KPH | gust KPH | rain 1hr cm | rain 24hr cm | rain mn cm | humidity % | barometer mb |
| 20260506024511 | 10 | 238 | 0.0 | 0.0 | 0.00 | 0.64 | 0.00 | 93 | 1007.5 |
| 20260506023035 | 10 | 238 | 0.0 | 0.0 | 0.00 | 0.64 | 0.00 | 93 | 1007.8 |
| 20260506021511 | 10 | 238 | 0.0 | 0.0 | 0.00 | 0.64 | 0.00 | 93 | 1007.9 |
| 20260506020027 | 10 | 238 | 0.0 | 0.0 | 0.00 | 0.64 | 0.00 | 94 | 1008.0 |
| 20260506014536 | 10 | 238 | 0.0 | 0.0 | 0.00 | 0.71 | 0.00 | 94 | 1008.2 |
| 20260506013056 | 10 | 238 | 0.0 | 0.0 | 0.00 | 0.71 | 0.00 | 94 | 1008.2 |
| 20260506011518 | 10 | 238 | 0.0 | 0.0 | 0.00 | 0.71 | 0.00 | 93 | 1008.5 |
| 20260506010018 | 10 | 238 | 0.0 | 0.0 | 0.00 | 0.71 | 0.00 | 94 | 1008.7 |
| 20260506004543 | 10 | 238 | 0.0 | 0.0 | 0.00 | 0.76 | 0.00 | 94 | 1008.8 |
| 20260506003100 | 10 | 238 | 0.0 | 0.0 | 0.00 | 0.76 | 0.00 | 94 | 1008.8 |
| 20260506001521 | 9 | 238 | 0.0 | 0.0 | 0.00 | 0.76 | 0.00 | 94 | 1008.9 |
| 20260506000034 | 8 | 238 | 0.0 | 0.0 | 0.00 | 0.76 | 0.00 | 93 | 1009.1 |
| 20260505234559 | 8 | 238 | 0.0 | 0.0 | 0.00 | 0.76 | 0.00 | 93 | 1009.3 |
| 20260505233027 | 8 | 238 | 0.0 | 0.0 | 0.00 | 0.76 | 0.00 | 93 | 1009.3 |
| 20260505231552 | 8 | 238 | 0.0 | 0.0 | 0.00 | 0.76 | 0.00 | 93 | 1009.3 |
| 20260505230012 | 8 | 238 | 0.0 | 0.0 | 0.00 | 0.76 | 0.00 | 93 | 1009.4 |
| 20260505224524 | 8 | 238 | 0.0 | 0.0 | 0.00 | 0.76 | 0.00 | 93 | 1009.6 |
| 20260505223042 | 8 | 238 | 0.0 | 0.0 | 0.00 | 0.76 | 0.00 | 92 | 1009.3 |
| 20260505221556 | 8 | 238 | 0.0 | 0.0 | 0.00 | 0.76 | 0.00 | 92 | 1009.3 |
| 20260505220025 | 8 | 238 | 0.0 | 0.0 | 0.00 | 0.76 | 0.76 | 92 | 1009.2 |
| 20260505214525 | 8 | 238 | 0.0 | 0.0 | 0.00 | 0.76 | 0.76 | 92 | 1009.3 |
| 20260505213034 | 8 | 238 | 0.0 | 0.0 | 0.00 | 0.76 | 0.76 | 91 | 1009.3 |
| 20260505211558 | 8 | 238 | 0.0 | 0.0 | 0.00 | 0.76 | 0.76 | 91 | 1009.2 |
| 20260505210106 | 9 | 238 | 0.0 | 0.0 | 0.00 | 0.76 | 0.76 | 91 | 1009.3 |
| 20260505204508 | 9 | 238 | 0.0 | 0.0 | 0.00 | 0.76 | 0.76 | 91 | 1009.3 |
| 20260505203025 | 10 | 238 | 0.0 | 0.0 | 0.00 | 0.76 | 0.76 | 91 | 1009.2 |
| 20260505201549 | 10 | 238 | 0.0 | 0.0 | 0.00 | 0.76 | 0.76 | 91 | 1009.2 |
| 20260505200110 | 10 | 238 | 0.0 | 0.0 | 0.00 | 0.76 | 0.76 | 90 | 1009.2 |
| 20260505194520 | 10 | 238 | 0.0 | 0.0 | 0.00 | 0.76 | 0.76 | 90 | 1009.0 |
| 20260505193101 | 11 | 238 | 0.0 | 0.0 | 0.00 | 0.76 | 0.76 | 89 | 1008.7 |
| 20260505191523 | 11 | 238 | 0.0 | 0.0 | 0.00 | 0.76 | 0.76 | 89 | 1008.3 |
| 20260505190044 | 11 | 238 | 0.0 | 0.0 | 0.00 | 0.76 | 0.76 | 89 | 1008.4 |
| 20260505184559 | 12 | 238 | 0.0 | 0.0 | 0.00 | 0.76 | 0.76 | 88 | 1008.4 |
| 20260505183005 | 12 | 238 | 0.0 | 0.0 | 0.00 | 0.76 | 0.76 | 88 | 1008.5 |
| 20260505181521 | 13 | 238 | 0.0 | 0.0 | 0.00 | 0.76 | 0.76 | 87 | 1008.5 |
| 20260505180032 | 13 | 238 | 0.0 | 0.0 | 0.00 | 0.76 | 0.76 | 86 | 1008.1 |
| 20260505174606 | 13 | 235 | 0.0 | 3.2 | 0.00 | 0.76 | 0.76 | 85 | 1008.3 |
| 20260505173012 | 13 | 263 | 0.0 | 3.2 | 0.00 | 0.76 | 0.76 | 85 | 1008.4 |
| 20260505171540 | 14 | 250 | 0.0 | 0.0 | 0.00 | 0.76 | 0.76 | 84 | 1008.5 |
| 20260505170058 | 14 | 245 | 0.0 | 4.8 | 0.00 | 0.76 | 0.76 | 82 | 1008.6 |
| 20260505164518 | 14 | 254 | 0.0 | 0.0 | 0.00 | 0.76 | 0.76 | 81 | 1008.6 |
| 20260505163028 | 15 | 233 | 0.0 | 0.0 | 0.00 | 0.76 | 0.76 | 82 | 1008.5 |
| 20260505161546 | 15 | 239 | 0.0 | 0.0 | 0.00 | 0.76 | 0.76 | 83 | 1008.6 |
| 20260505153033 | 14 | 246 | 0.0 | 6.4 | 0.00 | 0.76 | 0.76 | 86 | 1008.6 |
| 20260505151555 | 14 | 233 | 0.0 | 9.7 | 0.00 | 0.76 | 0.76 | 85 | 1008.5 |
| 20260505124526 | 16 | 245 | 0.0 | 0.0 | 0.03 | 0.79 | 0.76 | 89 | 1008.2 |
| 20260505123036 | 15 | 229 | 0.0 | 3.2 | 0.05 | 0.79 | 0.76 | 89 | 1008.3 |
| 20260505121552 | 14 | 213 | 0.0 | 0.0 | 0.15 | 0.79 | 0.76 | 90 | 1008.5 |
| 20260505120011 | 13 | 213 | 0.0 | 1.6 | 0.15 | 0.79 | 0.71 | 90 | 1008.7 |
| 20260505114525 | 13 | 244 | 0.0 | 4.8 | 0.15 | 0.79 | 0.71 | 90 | 1008.8 |
| 20260505113038 | 14 | 235 | 0.0 | 6.4 | 0.15 | 0.76 | 0.71 | 88 | 1008.8 |
| 20260505111557 | 15 | 240 | 0.0 | 1.6 | 0.03 | 0.64 | 0.61 | 86 | 1008.8 |
| 20260505101608 | 14 | 281 | 0.0 | 11.3 | 0.00 | 0.61 | 0.58 | 85 | 1009.0 |
| 20260505100018 | 14 | 342 | 0.0 | 0.0 | 0.00 | 0.61 | 0.58 | 84 | 1008.9 |
| 20260505094526 | 14 | 225 | 0.0 | 0.0 | 0.00 | 0.64 | 0.58 | 87 | 1008.9 |
| 20260505093040 | 15 | 258 | 1.6 | 8.0 | 0.00 | 0.64 | 0.58 | 87 | 1008.8 |
| 20260505091612 | 14 | 238 | 0.0 | 4.8 | 0.00 | 0.64 | 0.58 | 88 | 1008.8 |
| 20260505090038 | 14 | 238 | 0.0 | 0.0 | 0.00 | 0.64 | 0.58 | 89 | 1008.7 |
| 20260505084549 | 13 | 238 | 0.0 | 1.6 | 0.00 | 0.71 | 0.58 | 89 | 1008.7 |
| 20260505083107 | 13 | 238 | 0.0 | 1.6 | 0.00 | 0.71 | 0.58 | 90 | 1008.5 |
| 20260505081524 | 13 | 238 | 0.0 | 0.0 | 0.00 | 0.71 | 0.58 | 91 | 1008.5 |
| 20260505080044 | 13 | 238 | 0.0 | 0.0 | 0.00 | 0.71 | 0.58 | 92 | 1008.5 |
| 20260505074550 | 13 | 238 | 0.0 | 0.0 | 0.00 | 0.71 | 0.58 | 94 | 1008.6 |
| 20260505073106 | 12 | 238 | 0.0 | 0.0 | 0.00 | 0.71 | 0.58 | 94 | 1008.8 |
| 20260505071515 | 12 | 238 | 0.0 | 1.6 | 0.00 | 0.71 | 0.58 | 94 | 1008.9 |
| 20260505070021 | 11 | 238 | 0.0 | 0.0 | 0.00 | 0.71 | 0.58 | 94 | 1009.0 |
| 20260505064540 | 11 | 238 | 0.0 | 0.0 | 0.03 | 0.71 | 0.58 | 94 | 1009.1 |
| 20260505063050 | 11 | 238 | 0.0 | 0.0 | 0.03 | 0.71 | 0.58 | 94 | 1009.2 |
| 20260505061505 | 11 | 238 | 0.0 | 0.0 | 0.05 | 0.71 | 0.58 | 94 | 1009.4 |
| 20260505060123 | 10 | 238 | 0.0 | 0.0 | 0.05 | 0.71 | 0.58 | 94 | 1009.5 |
| 20260505054600 | 10 | 238 | 0.0 | 0.0 | 0.05 | 0.71 | 0.56 | 94 | 1009.6 |
| 20260505053026 | 10 | 238 | 0.0 | 0.0 | 0.05 | 0.71 | 0.56 | 94 | 1009.8 |
| 20260505051534 | 10 | 238 | 0.0 | 0.0 | 0.08 | 0.69 | 0.53 | 93 | 1009.9 |
| 20260505041519 | 10 | 238 | 0.0 | 0.0 | 0.15 | 0.61 | 0.46 | 93 | 1010.3 |
| 20260505040044 | 10 | 238 | 0.0 | 0.0 | 0.15 | 0.58 | 0.43 | 93 | 1010.5 |
| 20260505034623 | 10 | 238 | 0.0 | 0.0 | 0.15 | 0.51 | 0.38 | 93 | 1010.6 |
| 20260505033005 | 10 | 238 | 0.0 | 0.0 | 0.13 | 0.48 | 0.33 | 93 | 1010.7 |
| 20260505031520 | 10 | 238 | 0.0 | 0.0 | 0.15 | 0.46 | 0.33 | 93 | 1010.8 |
| 20260505030034 | 10 | 238 | 0.0 | 0.0 | 0.15 | 0.43 | 0.28 | 93 | 1010.9 |